Showing default

FLOCK 4BE 15, 60491

Orbit data source: Space-Track

FLOCK 4BE 15, 60491 is a payload satellite owned by Planet (US) in SSO that was launched on Fri, 16 Aug 2024 UTC via an FALCON 9 launch vehicle from the Air Force Western Test Range (AFWTR). Payload-class satellites include a variety of spacecraft equipped with specific instruments for various scientific and technological missions. These include communications satellites like Starlink; space stations such as the ISS; scientific satellites like the Hubble; Earth observation satellites from companies like Planet Labs, Umbra, and HawkEye 360; GPS; miniature CubeSats for education and research; and military/defense satellites.

Loading next visibility...
Identifier
60491, 2024-149Z
Orbit
SSO
Country
Flag of USUS
Related business
Manufacturer
Planet
Mission
Non-operational Commercial Imaging
Bus & Motor
CUBESAT 3U, Unknown motor
Mass
5.7 kg wet, 5.7 kg dry
Launch date (UTC)
2024-08-16 (2 years ago)
Launch vehicle
FALCON 9
Launch site
Air Force Western Test Range (AFWTR)
Object type
Payload
Rocket body
Debris
Shape & HBR
Box + 2 Pan, 1.0 m
Radar Cross Section
0.072 m², Medium (>0.1 m² and < 1m²)

Expand to show TLE details & history
Last TLE update: 2 days ago

TLE from 2 days ago
0 FLOCK 4BE 15
1 60491U 24149Z   26235.53812382  .00199488  00000-0  13037-2 0  9995
2 60491  97.3608 324.1145 0002053 235.6951 124.4120 15.75252694112976
Epoch: 2026-08-23T12:54Z
TLE epoch observation values (Epoch: 2026-08-23T12:54:53.898Z)
Latitude
0.00002°
Longitude
158.55718°
Altitude
347.859 km
Speed
7.7 km/s
True Right ascension
21h 36m 27s
True Declination
0° 00' 00"
Sunlit
Object was in full shadow at epoch
Visualization orbit readout
Latitude
Unknown
Longitude
Unknown
Altitude
Unknown
Speed
Unknown
Apparent Right ascension
Unknown
Apparent Declination
Unknown
Sunlit
N/A
Visualization observer readout
Local Sidereal Time
00:20:15
Azimuth
Unknown
Elevation
Unknown
Doppler factor
Unknown
Orbital elements
Apogee altitude
342.182 km
Perigee altitude
339.423 km
Semi-major axis
6,718.94 km
Eccentricity
0.00021
Inclination
97.3608°
RAAN
324.1145°
Arg. of periapsis
235.6951°
True anomaly
124.43141°
Mean anomaly
124.412°
Eccentric anomaly
124.4217°
Mean motion
3.94087 °/min
Orbital period
91.35 mins
BSTAR
0.0013037
Loading maneuver chart data...
Computing Atmospheric mass density...
Loading historical data...
Loading historical data...
Loading historical data...
Loading historical data...
Loading historical data...
Loading historical data...
Loading historical data...

Documentation

Showing up to 5 results
|